Vorticity
6 10 8 -3 3 8 -1 1 3 -2 -8 -10 9 -5 -5 2 -2 7 7 -2 8 15 11 13 20 12 9 21 8 8 9 7
1 4 7 -0 4 3 2 -0 3 3 1 2 1 20 12 0 3 8 1 10 4 -0 14 19 16 11 13 6 4 5 6 6
16 13 13 11 -2 3 3 -2 2 4 5 2 1 -3 11 -6 -9 18 0 10 -5 13 7 9 24 14 13 16 17 19 17 13
18 6 18 16 2 7 2 2 3 -10 2 7 -2 26 18 6 -1 1 1 -2 -5 10 9 13 5 12 14 2 2 7 6 12
14 19 20 9 8 8 2 6 3 -5 -1 7 25 4 13 10 27 3 -4 -1 10 18 -3 2 16 -10 1 4 3 2 3 5
16 7 18 10 17 -1 7 3 5 8 6 13 12 7 5 27 -3 8 -2 15 7 4 7 -4 -8 4 9 5 4 4 6 10
30 16 17 18 11 9 7 1 4 10 11 8 6 8 -1 11 12 12 15 18 2 4 3 -6 8 6 6 4 8 -4 9 15
38 22 16 12 13 18 12 1 15 4 18 18 4 2 26 10 7 16 12 4 9 5 1 -1 4 1 6 -0 3 10 -0 5
26 19 14 19 21 7 13 7 1 9 14 7 10 25 2 6 3 28 -7 12 1 3 1 1 2 -1 -1 1 6 4 10 -4
6 -2 4 29 14 14 9 -1 3 6 -9 2 9 10 3 4 7 5 5 2 1 2 4 1 3 2 4 1 1 12 13 2
2 6 6 14 27 8 -1 4 6 11 15 -10 -10 1 2 -4 16 -3 -4 8 4 -0 -3 -1 -0 2 1 -0 -4 4 16 -2
9 5 8 15 20 5 -8 7 26 17 6 3 3 -2 3 23 8 4 5 -4 -2 9 -7 13 -4 6 7 3 -11 16 -3 3
18 8 9 9 20 -0 23 1 -4 31 9 11 7 16 19 3 -4 10 10 7 13 3 1 -1 -4 -0 8 5 3 3 26 6
13 19 11 10 10 3 7 -35 13 -0 19 6 16 13 -20 5 -25 10 16 12 3 -7 6 8 2 4 10 13 11 -19 13 6
7 13 6 14 7 13 -2 17 24 -24 -13 9 19 5 28 1 5 10 14 10 22 10 13 9 -10 32 24 11 11 31 -3 14
10 20 5 4 11 10 -1 0 -2 -17 -39 11 -2 -7 3 9 13 14 5 9 -1 10 11 4 11 16 8 11 -4 -0 11 5
40 -6 17 33 13 14 15 16 7 7 1 7 14 7 13 16 5 -9 1 -6 -5 -11 10 11 10 12 18 11 30 14 9 28
57 -35 16 -29 -14 19 17 -4 -16 -3 -5 7 -3 -3 4 4 2 -7 9 -7 42 45 43 48 13 16 -3 -4 9 15 7 5
21 20 12 21 -46 28 1 23 11 7 9 17 -9 1 10 14 37 35 17 -1 -21 4 21 12 3 9 9 7 9 16 14 8
Height
5835 5845 5852 5854 5856 5864 5866 5867 5869 5871 5874 5880 5885 5887 5889 5891 5893 5895 5895 5894 5892 5890 5889 5887 5887 5888 5889 5890 5891 5891 5890 5890
5827 5836 5842 5844 5853 5857 5856 5857 5859 5863 5867 5873 5879 5883 5885 5887 5889 5891 5892 5890 5888 5888 5885 5884 5883 5884 5885 5886 5887 5887 5886 5884
5816 5819 5830 5834 5838 5844 5849 5851 5853 5858 5861 5869 5873 5876 5879 5882 5885 5886 5887 5887 5886 5885 5884 5882 5880 5880 5882 5884 5884 5883 5882 5879
5802 5812 5821 5827 5832 5839 5841 5845 5848 5852 5855 5864 5869 5871 5874 5878 5880 5882 5883 5883 5882 5881 5880 5879 5878 5878 5879 5880 5880 5879 5876 5873
5787 5797 5805 5813 5821 5827 5834 5839 5840 5846 5850 5861 5863 5865 5868 5872 5874 5876 5877 5878 5877 5877 5876 5876 5876 5876 5877 5876 5875 5873 5870 5866
5775 5789 5798 5803 5809 5818 5826 5829 5835 5838 5847 5854 5856 5859 5862 5863 5868 5870 5872 5873 5872 5872 5872 5873 5874 5874 5874 5873 5870 5868 5864 5861
5777 5783 5790 5798 5806 5813 5817 5825 5829 5837 5840 5846 5850 5852 5855 5857 5860 5862 5864 5866 5866 5867 5867 5868 5868 5869 5868 5868 5866 5863 5859 5857
5768 5774 5780 5787 5796 5804 5812 5818 5823 5829 5833 5840 5844 5847 5848 5851 5853 5855 5858 5860 5860 5860 5861 5860 5860 5861 5861 5860 5857 5855 5852 5851
5760 5766 5774 5775 5784 5794 5804 5811 5818 5821 5828 5833 5836 5838 5841 5844 5847 5849 5853 5853 5853 5853 5853 5852 5851 5851 5851 5849 5846 5846 5845 5842
5753 5757 5759 5772 5781 5790 5798 5804 5810 5815 5820 5827 5830 5833 5834 5836 5838 5842 5845 5845 5845 5844 5844 5843 5842 5842 5842 5840 5838 5837 5837 5832
5745 5751 5758 5765 5772 5781 5789 5796 5802 5808 5812 5817 5822 5824 5826 5828 5830 5833 5836 5837 5836 5834 5832 5833 5834 5834 5833 5831 5829 5828 5827 5825
5741 5746 5750 5760 5767 5775 5784 5786 5792 5798 5804 5809 5813 5816 5817 5820 5823 5825 5825 5826 5825 5824 5821 5822 5824 5824 5822 5820 5818 5817 5817 5815
5732 5738 5747 5755 5761 5768 5772 5781 5785 5791 5797 5801 5804 5808 5811 5813 5815 5816 5817 5817 5816 5816 5813 5812 5813 5813 5811 5809 5809 5807 5806 5804
5724 5733 5741 5749 5755 5761 5765 5768 5777 5783 5788 5792 5795 5799 5799 5802 5804 5806 5808 5808 5808 5806 5803 5802 5800 5800 5800 5802 5795 5798 5795 5790
5719 5727 5735 5741 5747 5752 5759 5764 5768 5773 5777 5783 5786 5789 5792 5794 5795 5796 5797 5799 5798 5797 5794 5792 5792 5788 5788 5789 5787 5782 5781 5779
5713 5720 5727 5734 5740 5746 5750 5755 5760 5764 5768 5772 5774 5778 5781 5782 5783 5785 5787 5787 5785 5783 5781 5780 5784 5781 5779 5776 5774 5770 5769 5765
5705 5710 5721 5726 5733 5738 5742 5746 5748 5753 5757 5760 5763 5767 5770 5771 5771 5774 5775 5775 5776 5775 5773 5774 5773 5771 5765 5762 5762 5759 5758 5753
5704 5708 5711 5715 5720 5725 5728 5732 5737 5742 5746 5751 5754 5756 5759 5762 5762 5763 5764 5765 5764 5761 5761 5760 5758 5755 5753 5750 5749 5747 5742 5741
5692 5698 5702 5705 5709 5712 5719 5723 5730 5734 5739 5743 5746 5748 5750 5751 5752 5752 5753 5754 5752 5750 5747 5745 5742 5740 5739 5736 5737 5736 5733 5730